カタログに戻る

PSLV R/B

運用中SSO
NORAD 28651·ROCKET BODY·🇮🇳 India

打ち上げ May 5, 2005 から Satish Dhawan Space Centre

Loading…

次のパス (今後24時間)

TLE

最新Source: Space-Track

元期: Sep 14, 2026, 23:22 UTC

1 28651U 05017C   26257.97415593  .00000748  00000-0  10391-3 0  9996
2 28651  97.8553 159.4594 0067036  15.2320 345.0889 14.79324013148322

AllMySatでPSLV R/Bをリアルタイム追跡

Download on the App Store